Regional Weather Roundup
Issued by NWS Bismarck, ND

Home | Current Version | Previous Version | Text Only | Print | Product List | Glossary On
Versions: 1 2 3 4 5 6 7 8 9 10 11 12 13 14 15 16 17 18 19 20 21 22 23 24 25 26 27 28 29 30 31 32 33 34 35 36 37 38 39 40 41 42 43 44 45 46 47 48 49 50
000
ASUS43 KBIS 261510
RWRBIS

NWR BROADCAST TEXT
NATIONAL WEATHER SERVICE BISMARCK ND
900 AM CST SUN FEB 26 2017

NOTE: "FAIR" INDICATES FEW OR NO CLOUDS BELOW 12,000 FEET WITH NO
SIGNIFICANT WEATHER AND/OR OBSTRUCTIONS TO VISIBILITY.


CITY           SKY/WX    TMP DP  RH WIND       PRES   REMARKS
WILLISTON      LGT SNOW  13  10  88 NE5       29.72S FOG     WCI   5
MINOT          FLURRIES   5   1  83 SW9       29.75R WCI  -9
MINOT AFB      FAIR       4   0  84 W5        29.75R WCI  -6
BISMARCK       CLOUDY    14   9  80 S6        29.78S WCI   5
DICKINSON      PTSUNNY   16  14  92 S7        29.65S WCI   6
GARRISON         N/A      8   5  87 CALM      29.74R
HETTINGER ARPT FAIR      17  13  84 W5        29.71R WCI  10
JAMESTOWN      FAIR      13   8  81 CALM      29.78R
CARRINGTON     FAIR       3   1  92 W6        29.80R WCI  -8
HAZEN            N/A    N/A N/A N/A CALM      29.77S
MANDAN         CLOUDY    12   9  85 SE5       29.76S WCI   4
RUGBY            N/A     -4  -9  77 S3        29.77R FOG
STANLEY        LGT SNOW   7   7 100 CALM      29.73R
TIOGA          FAIR       5   5 100 CALM      29.72S FOG
WATFORD CITY   PTSUNNY   16  14  93 SE7       29.71S WCI   6
$$

CITY           SKY/WX    TMP DP  RH WIND       PRES   REMARKS
GRAND FORKS    FAIR       7  -2  66 W9        29.82R WCI  -7
GRAND FORKS AF FAIR       8   1  73 W7        29.82R WCI  -4
DEVILS LAKE    FAIR      -2  -6  84 W6        29.79R FOG     WCI -14
FARGO          FAIR      12   7  80 NW7       29.83R WCI   1
CAVALIER         N/A      7   0  72 W5        29.80S WCI  -2
GRAFTON        FAIR       7   1  78 W5        29.83S WCI  -2
GWINNER        CLOUDY    18  12  79 N9        29.82R WCI   6
ROLLA          FAIR       5   1  85 W3        29.73R
$$

CITY           SKY/WX    TMP DP  RH WIND       PRES   REMARKS
ABERDEEN       FAIR      19  14  81 N12       29.83R WCI   7
MOBRIDGE       PTSUNNY   20  14  77 VRB3      29.76R
BUFFALO          N/A     22  15  75 W9        29.64R WCI  12
RAPID CITY     FAIR      23  12  62 SW6       29.77R WCI  16
GLASGOW        LGT SNOW  17  13  84 N6        29.70R FOG     WCI   9
SIDNEY         LGT SNOW  19  16  88 CALM      29.71R FOG
WOLF POINT     PTSUNNY   14  10  84 SW3       29.73R
GLENDIVE       FLURRIES  23  21  92 W7        29.69R WCI  15
MILES CITY     FAIR      30  20  66 W20       29.71R WCI  17
BAKER          CLOUDY    24  16  71 W16       29.68R WCI  11
$$

CITY           SKY/WX    TMP DP  RH WIND       PRES   REMARKS
BILLINGS       MOCLDY    23  12  62 SW12      29.73R WCI  12
GREAT FALLS    LGT SNOW  23  20  88 NE10      29.72S FOG     WCI  12
REGINA         LGT SNOW  18  14  86 W12       29.68S WCI   5
ESTEVAN        CRYSTALS   7   5  92 SW7       29.72R WCI  -5
$$




USA.gov is the U.S. government's official web portal to all federal, state and local government web resources and services.